Powrót do katalogu

NanoDragon

AktywnyNaukaSSO
NORAD 49398·PAYLOAD·🇯🇵 Japan

Wystrzelony Nov 9, 2021 z Uchinoura Space Center

Loading…

Następne Przeloty (najbliższe 24 godziny)

TLE

ŚwieżeSource: Space-Track

Epoka: Sep 14, 2026, 08:58 UTC

1 49398U 21102D   26257.37401938  .00007741  00000-0  25130-3 0  9999
2 49398  97.3115 298.4370 0006982 239.3899 120.6655 15.32199973267674

Śledź NanoDragon w czasie rzeczywistym z AllMySat

Download on the App Store